This is the latest recevied weather packets stored in our database for station/object KE8GJZ-1. If no packets are shown the sender has not sent any weather packets the latest 10 day(s).
| Time | Temp. | Humidity | Pressure | Rain* | Wind** | Luminosity | Snow |
|---|---|---|---|---|---|---|---|
| 1778127752 | 6.67° C | 71% | 1011.4 hPa | 0 mm | - | 0 W/m² | - |
| 1778127450 | 6.67° C | 70% | 1011.3 hPa | 0 mm | - | 0 W/m² | - |
| 1778127147 | 6.67° C | 68% | 1011.3 hPa | 0 mm | - | 0 W/m² | - |
| 1778126844 | 6.67° C | 67% | 1011.2 hPa | 0 mm | - | 0 W/m² | - |
| 1778126540 | 6.67° C | 67% | 1011.2 hPa | 0 mm | - | 0 W/m² | - |
| 1778126236 | 6.67° C | 69% | 1011.3 hPa | 0 mm | - | 0 W/m² | - |
| 1778125931 | 6.67° C | 69% | 1011.2 hPa | 0 mm | - | 0 W/m² | - |
| 1778125629 | 6.67° C | 67% | 1011.2 hPa | 0 mm | - | 0 W/m² | - |
| 1778125326 | 7.22° C | 67% | 1011.3 hPa | 0 mm | - | 0 W/m² | - |
| 1778125024 | 7.22° C | 68% | 1011.3 hPa | 0 mm | - | 0 W/m² | - |
| 1778124721 | 7.22° C | 67% | 1011.6 hPa | 0 mm | - | 0 W/m² | - |
| 1778124419 | 7.22° C | 66% | 1011.4 hPa | 0 mm | - | 0 W/m² | - |
| 1778124114 | 7.22° C | 65% | 1011.3 hPa | 0 mm | - | 0 W/m² | - |
| 1778123812 | 7.22° C | 65% | 1011.5 hPa | 0 mm | - | 0 W/m² | - |
| 1778123508 | 7.22° C | 65% | 1011.3 hPa | 0 mm | - | 0 W/m² | - |
| 1778123205 | 7.78° C | 65% | 1011.4 hPa | 0 mm | - | 0 W/m² | - |
| 1778122903 | 7.78° C | 65% | 1011.6 hPa | 0 mm | - | 0 W/m² | - |
| 1778122599 | 7.78° C | 64% | 1011.5 hPa | 0 mm | - | 0 W/m² | - |
| 1778122297 | 7.78° C | 58% | 1011.5 hPa | 0 mm | - | 0 W/m² | - |
| 1778121994 | 7.78° C | 58% | 1011.6 hPa | 0 mm | - | 0 W/m² | - |
| 1778121692 | 7.78° C | 58% | 1011.4 hPa | 0 mm | - | 0 W/m² | - |
| 1778121387 | 7.78° C | 57% | 1011.8 hPa | 0 mm | - | 0 W/m² | - |
| 1778121085 | 7.78° C | 55% | 1011.4 hPa | 0 mm | - | 0 W/m² | - |
| 1778120781 | 8.33° C | 55% | 1011.5 hPa | 0 mm | - | 0 W/m² | - |
| 1778120476 | 8.33° C | 55% | 1011.5 hPa | 0 mm | - | 0 W/m² | - |
* Rain latest hour (hover to see other rain measurements)
** Current wind speed in m/s (hover to see current wind gust speed)